Starlink 6304

operational
NORAD ID: 56778 Int'l Des: 2023-078 Owner: SPXS Country: US Constellation: starlink
LEOCIRCULAR

About Starlink 6304

Description loading...

Live Position

Loading 3D Globe...

Upcoming Passes

Altitude History

Altitude vs Time

uPlot chart will show altitude changes over time

Two-Line Element Set

1 56778U 23078M 25259.80668163 .00001095 00000-0 99537-4 0 9996
2 56778 70.0004 43.0348 0003222 269.9783 90.1007 14.98344288127122
Epoch: Sep 16, 2025 • Age: 28 hours

Current Status

Altitude 574.2 km
Velocity 7.57 km/s
Sub-Earth Point 2.64°N, 128.8°W
Launch Date May 31, 2023
Age 2.2 years
Type internet

Technical Details

Classification Payload
Mass 305.00 kg
Dry Mass 290.00 kg
Total Mass 305.00 kg
Length 0.20 m
Diameter 2.80 m
Span 9.00 m
Shape Box + pan
Manufacturer SPXS
Bus Type Starlink
Phase Status In Orbit
Owner/State SPXS/US

Large Constellations

Loading constellations...